Location: Newark
(36.8292°N, 10.0894°E)
Time: 18:52:01
(UTC+00:00)

LightSail 2 - Visible Passes

Search period start: 07 December 2019 00:00
Search period end: 17 December 2019 00:00
Orbit: 696 x 730 km, 24.0° (Epoch: 06 December)

Date Brightness Start Highest point End Pass type
(mag) Time Alt. Az. Time Alt. Az. Time Alt. Az.
07 Dec 7.4 17:13:27 10° SW 17:16:56 18° S 17:20:24 10° SE visible
07 Dec 7.8 19:00:15 10° SSW 19:01:02 11° SSW 19:01:02 11° SSW visible
08 Dec 7.6 18:01:19 10° SW 18:03:49 14° SSW 18:06:20 10° SSE visible
09 Dec 7.6 17:02:51 10° SW 17:05:57 16° S 17:09:01 10° SSE visible
11 Dec 7.8 16:52:47 10° SW 16:54:55 12° SSW 16:57:02 10° S visible
